Location: Freyte
(45.6000°N, 2.1667°E)
Time: 02:27:14
(UTC+00:00)

Daily predictions for brighter satellites

Satellite Brightness Start Highest point End
(mag) Time Altitude Azimuth Time Altitude Azimuth Time Altitude Azimuth
Cosmos 1867 3.5 00:05:01 57° SSW 00:06:09 83° SE 00:11:41 10° NE
Cosmos 1461 2.8 00:02:25 10° NW 00:06:31 84° W 00:06:31 84° W
Cosmos 2221 Rocket 3.4 00:06:47 80° SSW 00:07:02 88° W 00:11:28 10° N
Cosmos 1674 Rocket 3.6 00:06:55 62° ESE 00:07:05 63° E 00:11:22 10° NNE
Cosmos 2298 Rocket 4.4 00:07:41 45° SE 00:08:29 48° ESE 00:13:34 10° NNE
Cosmos 1674 2.8 00:10:51 66° NNW 00:10:51 66° NNW 00:14:15 10° N
USA 306 4.1 00:11:52 30° E 00:11:52 30° E 00:14:28 10° ENE
Cosmos 1238 Rocket 3.5 00:10:10 10° N 00:12:06 37° N 00:12:06 37° N
USA 307 4.2 00:15:20 29° E 00:15:20 29° E 00:17:52 10° ENE
ATLAS CENTAUR R/B 2.6 00:10:13 10° NW 00:13:59 34° W 00:13:59 34° W
SL-16 R/B 4.2 00:16:08 13° ESE 00:17:50 14° E 00:20:43 10° ENE
Cosmos 2322 Rocket 4.4 00:17:06 10° W 00:21:00 19° NW 00:24:54 10° N
Cosmos 1980 4.1 00:20:38 42° SE 00:21:46 49° ESE 00:27:11 10° NE
Cosmos 2333 Rocket 3.2 00:19:42 25° WSW 00:22:27 40° NW 00:27:49 10° NNE
Cosmos 1378 Rocket 3.4 00:22:19 76° S 00:22:39 88° E 00:27:07 10° N
Cosmos 2322 4.2 00:20:48 34° WSW 00:23:02 53° WNW 00:28:41 10° NNE
ATLAS 5 CENTAUR R/B 2.9 00:10:15 10° NW 00:23:03 87° SW 00:24:40 43° SE
Cosmos 468 4.4 00:17:59 10° NNW 00:23:15 90° ENE 00:24:27 55° SSE
CZ-4C R/B 3.0 00:16:14 10° NW 00:23:33 73° SW 00:27:53 32° SSE
Cosmos 1844 Rocket 4.5 00:22:57 10° WNW 00:26:18 16° W 00:26:32 16° WSW
USA 215 4.0 00:21:14 10° NE 00:27:30 50° NNW 00:33:47 10° W
NOSS 0 Rocket 3.9 00:29:22 47° S 00:31:16 74° ESE 00:37:30 10° NNE
PSLV R/B 4.1 00:30:04 10° N 00:34:19 49° WNW 00:35:00 44° WSW
USA 32 4.3 00:35:15 44° SSE 00:36:42 61° E 00:41:53 10° NNE
Meteor 2-10 Rocket 4.2 00:33:12 10° N 00:38:46 54° ENE 00:41:17 30° SE
Cosmos 1975 Rocket 4.2 00:39:39 30° ESE 00:40:38 34° E 00:44:40 10° NNE
Cosmos 2151 Rocket 4.2 00:36:38 10° NNW 00:40:46 41° W 00:40:53 41° W
Cosmos 1745 Rocket 4.0 00:36:22 10° NNW 00:42:34 71° W 00:44:35 44° SSW
ADEOS Rocket 3.9 00:42:18 27° WSW 00:43:19 29° W 00:48:22 10° NNW
Cosmos 839 Rocket 4.2 00:37:31 10° NW 00:43:55 89° ENE 00:49:12 21° SSE
USA 308 2.9 00:44:46 60° ESE 00:44:46 60° ESE 00:48:40 10° ENE
Okean 2 Rocket 4.1 00:40:58 10° NNW 00:45:02 33° W 00:45:13 33° W
Cosmos 2219 Rocket 3.3 00:42:56 22° WSW 00:45:46 35° NW 00:50:54 10° NNE
Cosmos 1025 Rocket 4.2 00:47:03 28° ESE 00:48:07 32° E 00:51:57 10° NNE
Meteor 2-12 Rocket 4.3 00:44:05 10° N 00:50:11 85° W 00:52:26 41° S
Meteor 1-16 Rocket 4.5 00:44:33 10° NNW 00:50:23 59° W 00:52:02 43° SSW
GP-B 3.1 00:52:45 10° N 00:57:12 75° E 00:58:07 55° SSE
Meteor 2-5 Rocket 4.4 00:55:38 29° SSE 00:58:08 46° E 01:03:31 10° NNE
Lacrosse 5 2.7 00:58:31 32° SE 00:59:05 33° SE 01:03:39 10° ENE
CZ-2D R/B 3.1 00:55:14 10° NNE 01:00:15 39° E 01:02:28 27° SE
Cosmos 1300 2.5 00:57:35 10° NNW 01:01:23 78° W 01:01:27 78° WSW
SL-14 R/B 3.5 01:02:27 52° W 01:02:38 53° WNW 01:06:26 10° N
USA 267 3.7 01:02:14 36° SSW 01:03:13 38° SW 01:09:16 10° WNW
Cosmos 883 Rocket 4.5 01:04:14 39° SSW 01:06:43 76° W 01:13:06 10° N
Cosmos 371 Rocket 3.6 01:06:03 42° WSW 01:07:23 58° WNW 01:12:12 10° NNE
Cosmos 2150 Rocket 4.3 01:06:08 39° WSW 01:07:47 57° WNW 01:12:53 10° NNE
USA 305 2.8 01:07:08 55° WSW 01:07:58 79° NNW 01:12:10 10° NE
NOSS 2-2 (C) 4.4 01:04:07 10° NW 01:09:18 59° SW 01:12:46 29° S
USA 229 DEB 4.0 01:03:37 10° NW 01:10:51 58° WSW 01:15:06 28° S
USA 229 4.0 01:03:43 10° NW 01:10:57 58° WSW 01:15:14 27° S
Cosmos 2237 Rocket 2.2 01:11:28 39° SW 01:13:38 73° WNW 01:19:21 10° NNE
COSMOS 2428 4.1 01:12:17 18° W 01:15:33 31° NW 01:20:33 10° N
Cosmos 405 Rocket 4.3 01:18:03 21° WNW 01:18:25 22° WNW 01:21:24 10° NNW
Cosmos 304 Rocket 3.8 01:17:17 46° SW 01:18:40 72° WNW 01:23:30 10° NNE
Cosmos 1437 Rocket 4.2 01:16:38 10° NW 01:19:16 24° W 01:19:16 24° W
SL-16 R/B 3.0 01:14:42 15° SE 01:19:55 61° ENE 01:26:04 10° N
Lacrosse 5 rocket 2.5 01:21:54 26° SE 01:21:58 26° SE 01:25:21 10° ENE
Cosmos 1125 Rocket 4.2 01:20:00 30° WSW 01:22:00 42° WNW 01:26:58 10° N
Okean 1 Rocket 4.2 01:19:54 10° NNW 01:23:43 29° W 01:24:05 29° W
SME Rocket 3.0 01:24:34 48° S 01:25:35 71° WSW 01:30:32 10° NNW
Cosmos 1953 3.7 01:23:14 10° NW 01:26:26 24° W 01:26:26 24° W
Cosmos 2074 Rocket 4.3 01:22:46 10° N 01:29:03 64° ENE 01:33:59 17° SSE
Resurs 1-4 Rocket 2.2 01:24:16 10° NNE 01:29:33 71° ESE 01:31:56 33° S
Cosmos 2297 4.3 01:27:46 10° NNW 01:33:28 57° ENE 01:39:05 10° SE
Cosmos 1943 Rocket 2.4 01:27:50 10° NNW 01:33:32 72° ENE 01:39:10 10° SSE
MOZ.5/SAFIR/RUBIN 5/SL-8 4.2 01:33:59 39° SW 01:35:05 46° W 01:39:41 10° NNW
Cosmos 1709 Rocket 4.4 01:31:11 10° NNW 01:36:55 44° W 01:39:18 30° SW
Cosmos 2315 Rocket 4.4 01:35:34 30° SW 01:38:30 52° WNW 01:44:45 10° N
Cosmos 2184 Rocket 4.1 01:37:39 10° N 01:43:58 79° E 01:48:45 18° SSE
Cosmos 2278 Rocket 3.1 01:39:39 10° NW 01:44:24 28° WSW 01:45:23 27° WSW
ADEOS II 2.6 01:40:18 10° NNE 01:45:27 52° E 01:48:40 22° SSE
IDEFIX/ARIANE 42P 3.4 01:41:17 10° NNE 01:46:20 44° E 01:49:52 19° SSE
USA 306 3.7 01:47:33 20° W 01:50:06 47° NNW 01:54:09 10° NE
Cosmos 2084 Rocket 3.2 01:49:15 42° WSW 01:50:24 71° NW 01:54:12 10° NE
USA 307 3.6 01:51:04 21° W 01:53:34 49° NNW 01:57:39 10° NE
Thor Agena Rocket 4.3 01:48:41 10° N 01:53:37 41° WNW 01:56:09 25° WSW
ERBS 3.4 01:54:54 26° WNW 01:55:56 34° NNW 01:58:47 10° NE
NPP 3.6 01:52:09 10° NNE 01:57:34 83° WNW 02:00:36 27° SSW
Cosmos 2369 Rocket 3.2 01:53:19 10° NNW 01:58:42 46° ENE 02:04:03 10° SE
SL-16 R/B 2.2 01:58:00 28° SSW 02:01:06 88° WNW 02:06:50 10° NNE
Cosmos 1455 Rocket 4.0 01:58:05 10° NNW 02:02:04 32° W 02:03:15 28° WSW
CZ-4 R/B 4.0 01:57:56 10° N 02:02:30 57° WNW 02:04:41 29° SW
Cosmos 614 Rocket 4.2 01:57:19 10° NNW 02:02:32 74° ENE 02:07:44 10° SSE
Cosmos 2228 4.2 01:58:32 10° N 02:02:43 42° ENE 02:06:50 10° SSE
EO 1 Del DPAF 3.6 02:00:10 10° NNE 02:03:36 52° E 02:05:17 26° SSE
Cosmos 2251 Rocket 4.5 01:59:21 10° NNW 02:04:28 48° ENE 02:09:34 10° SE
Meteor 1-28 Rocket 3.2 02:03:36 21° SSE 02:06:01 78° ENE 02:09:46 10° N
COSMOS 2455 3.1 02:04:48 23° S 02:08:36 62° ESE 02:14:33 10° NE
Cosmos 1536 Rocket 3.5 02:08:02 26° S 02:10:33 86° E 02:14:57 10° N
CZ-4C R/B 4.4 02:06:28 10° WNW 02:11:27 18° WSW 02:12:59 18° WSW
Nadezhda 1 Rocket 4.0 02:15:05 18° S 02:19:57 86° W 02:26:17 10° N
Meteor 1-24 Rocket 4.2 02:17:04 23° SW 02:20:14 44° WNW 02:25:28 10° N
UNK 4.0 02:19:09 23° SSW 02:21:41 47° W 02:26:09 10° NNW
MSX 4.0 02:17:42 10° NNE 02:23:30 72° ESE 02:28:25 15° S
USA 308 4.1 02:20:31 10° W 02:24:20 37° NNW 02:28:15 10° NE
Cosmos 1025 Rocket 4.5 02:23:55 18° WSW 02:25:44 24° WNW 02:29:16 10° NNW
MOS 1 Rocket 3.3 02:23:22 23° SSW 02:25:46 48° W 02:29:57 10° NNW
Cosmos 1455 2.7 02:22:27 10° NNW 02:25:55 38° W 02:27:23 26° SW
Cosmos 1271 Rocket 2.6 02:25:59 10° NNW 02:29:47 69° W 02:32:44 16° S
Cosmos 1606 Rocket 4.1 02:29:33 10° N 02:33:57 60° ENE 02:38:16 10° SSE
ALOS 4.3 02:33:45 10° NE 02:37:35 25° E 02:41:24 10° SSE
CZ-2C R/B 4.3 02:35:26 10° NE 02:39:46 27° E 02:44:00 10° SSE
CZ-2D R/B 3.2 02:35:28 10° N 02:40:11 32° WNW 02:43:47 15° WSW
Lacrosse 5 2.4 02:37:42 15° WSW 02:41:53 56° NNW 02:46:55 10° NE
Helios 1B rocket 3.5 02:40:41 10° NNE 02:44:34 42° E 02:48:24 10° S
Cosmos 2341 Rocket 4.2 02:40:21 10° N 02:46:47 82° E 02:53:11 10° S
Cosmos 2154 Rocket 4.4 02:44:06 10° NNW 02:50:07 47° W 02:56:00 10° SSW
BREEZE-M DEB (TANK) 3.4 02:47:13 16° SW 02:50:40 39° SSE 02:53:05 10° E
Meteor 2-1 Rocket 4.3 02:45:31 10° N 02:51:20 87° E 02:56:58 10° S
Cosmos 407 Rocket 3.9 02:47:09 10° NNW 02:52:29 70° ENE 02:57:43 10° SSE
SL-8 Rocket 4.2 02:47:10 10° N 02:53:31 77° E 02:59:50 10° SSE
Cosmos 1943 3.4 02:50:42 11° SSW 02:56:08 71° ESE 03:01:48 10° NNE
Cosmos 1328 3.9 02:52:16 10° S 02:56:13 78° E 03:00:13 10° NNE
Helios 1A 3.8 02:53:26 14° SSW 02:56:28 33° W 03:00:18 10° NNW
Cosmos 2237 Rocket 4.3 02:55:20 10° WNW 02:58:45 16° NW 03:02:11 10° N
Genesis I 3.9 02:55:48 10° NNW 02:59:50 60° NE 03:03:47 10° SE
Lacrosse 5 rocket 1.9 02:57:25 12° WSW 03:00:48 48° NNW 03:04:49 10° NE
Cosmos 1140 Rocket 3.5 02:58:09 10° NNW 03:03:27 89° ENE 03:08:41 10° SSE
SL-16 R/B 3.7 02:59:47 13° SW 03:03:55 24° W 03:08:54 10° NW
Lacrosse 4 Rocket 3.9 03:05:37 10° SSE 03:08:31 18° ESE 03:11:23 10° ENE
Resurs 1-4 Rocket 3.9 03:05:16 10° NNW 03:08:48 19° WNW 03:12:20 10° WSW
SeaSat 1 4.2 03:05:29 10° NE 03:09:40 27° ESE 03:13:49 10° SSE
Cosmos 1892 Rocket 3.7 03:05:32 10° S 03:09:59 86° E 03:14:30 10° N
Cosmos 1726 Rocket 3.6 03:09:08 10° NNW 03:13:32 67° W 03:17:52 10° S
Cosmos 1703 4.4 03:11:07 12° SW 03:14:10 28° WNW 03:17:37 10° NNW
Cosmos 1943 Rocket 3.6 03:12:51 10° WNW 03:16:38 18° W 03:20:24 10° SW
FENGYUN 3A 3.9 03:12:19 10° NNE 03:17:43 72° ESE 03:23:04 10° S
Cosmos 2263 4.2 03:12:11 10° NNW 03:17:47 63° WSW 03:23:25 10° S
NOSS 3-3 (A) 3.9 03:13:34 10° SW 03:19:10 86° NW 03:25:42 10° NE
NOSS 3-3 (C) 3.9 03:13:40 10° SW 03:19:15 87° NW 03:25:48 10° NE
ADEOS II 3.5 03:20:39 10° N 03:24:47 24° WNW 03:28:54 10° WSW
Cosmos 1825 3.9 03:21:30 10° SSE 03:24:50 32° E 03:28:11 10° NNE
IDEFIX/ARIANE 42P 3.8 03:21:16 10° N 03:25:40 28° WNW 03:30:04 10° WSW
SL-24 DEB 4.3 03:21:37 10° S 03:26:20 69° W 03:31:03 10° N
ARIANE 5 R/B 3.1 03:22:56 10° NNE 03:27:57 60° ESE 03:32:53 10° S
Cosmos 1624 Rocket 4.3 03:23:14 10° SSW 03:28:32 74° ESE 03:33:50 10° NNE
CBERS-1 4.2 03:25:48 10° N 03:30:50 58° WNW 03:35:51 10° SSW
Cosmos 2218 Rocket 4.1 03:29:09 10° NNW 03:35:19 64° W 03:41:31 10° S
MOS 1-B Rocket 4.1 03:32:02 10° S 03:37:28 50° W 03:43:04 10° NNW
DEBRIS 3.2 03:33:52 10° WNW 03:42:02 86° SSW 03:44:52 10° ESE
